| time (UTC) | temp F | wind direction | speed MPH | gust MPH | rain 1hr in | rain 24hr in | rain mn in | humidity % | barometer mb |
| 20260507085642 | 72 | 0.0 | 0.0 | 0.00 | 0.00 | 0.00 | 65 | 1012.8 | |
| 20260507084142 | 71 | 0.0 | 0.0 | 0.00 | 0.00 | 0.00 | 68 | 1012.8 | |
| 20260507082642 | 71 | 0.0 | 0.0 | 0.00 | 0.00 | 0.00 | 67 | 1012.7 | |
| 20260507081142 | 70 | 0.0 | 0.0 | 0.00 | 0.00 | 0.00 | 74 | 1012.7 | |
| 20260507075642 | 70 | 0.0 | 0.0 | 0.00 | 0.00 | 0.00 | 74 | 1012.7 | |
| 20260507074142 | 70 | 0.0 | 0.0 | 0.00 | 0.00 | 0.00 | 73 | 1012.6 | |
| 20260507072642 | 70 | 0.0 | 0.0 | 0.00 | 0.00 | 0.00 | 76 | 1012.5 | |
| 20260507071142 | 70 | 0.0 | 0.0 | 0.00 | 0.00 | 0.00 | 76 | 1012.4 | |
| 20260507065642 | 71 | 0.0 | 0.0 | 0.00 | 0.00 | 0.00 | 75 | 1012.4 | |
| 20260507064142 | 70 | 0.0 | 0.0 | 0.00 | 0.00 | 0.00 | 76 | 1012.4 | |
| 20260507062642 | 69 | 0.0 | 0.0 | 0.00 | 0.00 | 0.00 | 80 | 1012.3 | |
| 20260507061142 | 68 | 0.0 | 0.0 | 0.00 | 0.00 | 0.00 | 85 | 1012.3 | |
| 20260507055642 | 64 | 0.0 | 0.0 | 0.00 | 0.00 | 0.00 | 95 | 1012.3 | |
| 20260507054142 | 62 | 0.0 | 0.0 | 0.00 | 0.00 | 0.00 | 98 | 1012.1 | |
| 20260507052642 | 62 | 0.0 | 0.0 | 0.00 | 0.00 | 0.00 | 99 | 1012.0 | |
| 20260507051142 | 62 | 0.0 | 0.0 | 0.00 | 0.00 | 0.00 | 10 | 1011.8 | |
| 20260507045642 | 62 | 0.0 | 0.0 | 0.00 | 0.00 | 0.00 | 99 | 1011.7 | |
| 20260507044142 | 62 | 0.0 | 0.0 | 0.00 | 0.00 | 0.00 | 10 | 1011.5 | |
| 20260507042642 | 61 | 0.0 | 0.0 | 0.00 | 0.00 | 0.00 | 10 | 1011.2 | |
| 20260507041142 | 62 | 0.0 | 0.0 | 0.00 | 0.00 | 0.00 | 99 | 1011.0 | |
| 20260507035642 | 62 | 0.0 | 0.0 | 0.00 | 0.00 | 0.00 | 10 | 1010.9 | |
| 20260507034142 | 61 | 0.0 | 0.0 | 0.00 | 0.00 | 0.00 | 10 | 1010.9 | |
| 20260507032642 | 61 | 0.0 | 0.0 | 0.00 | 0.00 | 0.00 | 10 | 1010.9 | |
| 20260507031141 | 61 | 0.0 | 0.0 | 0.00 | 0.00 | 0.00 | 10 | 1010.9 | |
| 20260507025642 | 61 | 0.0 | 0.0 | 0.00 | 0.00 | 0.00 | 10 | 1010.8 | |
| 20260507024141 | 61 | 0.0 | 0.0 | 0.00 | 0.00 | 0.00 | 10 | 1010.9 | |
| 20260507022641 | 61 | 0.0 | 0.0 | 0.00 | 0.00 | 0.00 | 10 | 1011.0 | |
| 20260507021141 | 61 | 0.0 | 0.0 | 0.00 | 0.00 | 0.00 | 10 | 1011.0 | |
| 20260507015641 | 61 | 0.0 | 0.0 | 0.00 | 0.00 | 0.00 | 99 | 1010.9 | |
| 20260507014141 | 61 | 0.0 | 0.0 | 0.00 | 0.00 | 0.00 | 99 | 1010.8 | |
| 20260507012641 | 61 | 0.0 | 0.0 | 0.00 | 0.00 | 0.00 | 98 | 1010.8 | |
| 20260507011141 | 61 | 0.0 | 0.0 | 0.00 | 0.00 | 0.00 | 98 | 1010.9 | |
| 20260507005641 | 61 | 0.0 | 0.0 | 0.00 | 0.00 | 0.00 | 97 | 1010.9 | |
| 20260507004141 | 61 | 0.0 | 0.0 | 0.00 | 0.00 | 0.00 | 98 | 1010.8 | |
| 20260507002641 | 61 | 0.0 | 0.0 | 0.00 | 0.00 | 0.00 | 98 | 1010.6 | |
| 20260507001141 | 61 | 0.0 | 0.0 | 0.00 | 0.00 | 0.00 | 97 | 1010.7 | |
| 20260506235641 | 61 | 0.0 | 0.0 | 0.00 | 0.00 | 0.00 | 98 | 1010.9 | |
| 20260506234141 | 62 | 0.0 | 0.0 | 0.00 | 0.00 | 0.00 | 97 | 1010.8 | |
| 20260506232641 | 62 | 0.0 | 0.0 | 0.00 | 0.00 | 0.00 | 97 | 1010.7 | |
| 20260506231141 | 62 | 0.0 | 0.0 | 0.00 | 0.00 | 0.00 | 97 | 1010.8 | |
| 20260506225641 | 62 | 0.0 | 0.0 | 0.00 | 0.00 | 0.00 | 97 | 1010.6 | |
| 20260506224141 | 62 | 0.0 | 0.0 | 0.00 | 0.00 | 0.00 | 96 | 1010.7 | |
| 20260506222641 | 62 | 0.0 | 0.0 | 0.00 | 0.00 | 0.00 | 96 | 1010.8 | |
| 20260506221141 | 62 | 0.0 | 0.0 | 0.00 | 0.00 | 0.00 | 96 | 1010.7 | |
| 20260506215641 | 63 | 0.0 | 0.0 | 0.00 | 0.00 | 0.00 | 95 | 1010.6 | |
| 20260506214141 | 63 | 0.0 | 0.0 | 0.00 | 0.00 | 0.00 | 96 | 1010.6 | |
| 20260506212641 | 63 | 0.0 | 0.0 | 0.00 | 0.00 | 0.00 | 95 | 1010.6 | |
| 20260506211141 | 63 | 0.0 | 0.0 | 0.00 | 0.00 | 0.00 | 95 | 1010.7 | |
| 20260506205641 | 63 | 0.0 | 0.0 | 0.00 | 0.00 | 0.00 | 95 | 1010.5 | |
| 20260506204141 | 63 | 0.0 | 0.0 | 0.00 | 0.00 | 0.00 | 95 | 1010.6 | |
| 20260506202641 | 64 | 0.0 | 0.0 | 0.00 | 0.00 | 0.00 | 95 | 1010.5 | |
| 20260506201141 | 64 | 0.0 | 0.0 | 0.00 | 0.00 | 0.00 | 95 | 1010.5 | |
| 20260506195641 | 64 | 0.0 | 0.0 | 0.00 | 0.00 | 0.00 | 95 | 1010.3 | |
| 20260506194141 | 64 | 0.0 | 0.0 | 0.00 | 0.00 | 0.00 | 94 | 1010.2 | |
| 20260506192641 | 64 | 0.0 | 0.0 | 0.00 | 0.00 | 0.00 | 95 | 1010.1 | |
| 20260506191141 | 64 | 0.0 | 0.0 | 0.00 | 0.00 | 0.00 | 96 | 1010.0 | |
| 20260506185641 | 65 | 0.0 | 0.0 | 0.00 | 0.00 | 0.00 | 94 | 1009.9 | |
| 20260506184141 | 65 | 0.0 | 0.0 | 0.00 | 0.00 | 0.00 | 93 | 1009.8 | |
| 20260506182641 | 65 | 0.0 | 0.0 | 0.00 | 0.00 | 0.00 | 92 | 1009.6 | |
| 20260506181141 | 65 | 0.0 | 0.0 | 0.00 | 0.00 | 0.00 | 92 | 1009.5 | |
| 20260506175642 | 65 | 0.0 | 0.0 | 0.00 | 0.00 | 0.00 | 93 | 1009.3 | |
| 20260506174141 | 65 | 0.0 | 0.0 | 0.00 | 0.00 | 0.00 | 93 | 1009.2 | |
| 20260506172641 | 65 | 0.0 | 0.0 | 0.00 | 0.00 | 0.00 | 92 | 1009.2 | |
| 20260506171141 | 65 | 0.0 | 0.0 | 0.00 | 0.00 | 0.00 | 91 | 1009.1 | |
| 20260506165641 | 65 | 0.0 | 0.0 | 0.00 | 0.00 | 0.00 | 92 | 1009.1 | |
| 20260506164141 | 65 | 0.0 | 0.0 | 0.00 | 0.00 | 0.00 | 92 | 1009.2 | |
| 20260506162641 | 66 | 0.0 | 0.0 | 0.00 | 0.00 | 0.00 | 92 | 1009.3 | |
| 20260506161141 | 66 | 0.0 | 0.0 | 0.00 | 0.00 | 0.00 | 93 | 1009.4 | |
| 20260506155641 | 65 | 0.0 | 0.0 | 0.00 | 0.00 | 0.00 | 91 | 1009.4 | |
| 20260506154141 | 65 | 0.0 | 0.0 | 0.00 | 0.00 | 0.00 | 91 | 1009.2 | |
| 20260506152641 | 65 | 0.0 | 0.0 | 0.00 | 0.00 | 0.00 | 93 | 1009.1 | |
| 20260506151141 | 65 | 0.0 | 0.0 | 0.00 | 0.00 | 0.00 | 97 | 1009.2 | |
| 20260506145641 | 65 | 0.0 | 0.0 | 0.00 | 0.00 | 0.00 | 99 | 1009.3 | |
| 20260506144141 | 65 | 0.0 | 0.0 | 0.00 | 0.00 | 0.00 | 97 | 1009.2 | |
| 20260506142641 | 65 | 0.0 | 0.0 | 0.00 | 0.00 | 0.00 | 98 | 1009.2 | |
| 20260506141141 | 65 | 0.0 | 0.0 | 0.00 | 0.00 | 0.00 | 97 | 1009.4 | |
| 20260506135641 | 65 | 0.0 | 0.0 | 0.00 | 0.00 | 0.00 | 95 | 1009.7 | |
| 20260506134141 | 65 | 0.0 | 0.0 | 0.00 | 0.00 | 0.00 | 93 | 1009.8 | |
| 20260506132641 | 66 | 0.0 | 0.0 | 0.00 | 0.00 | 0.00 | 90 | 1009.9 | |
| 20260506131141 | 66 | 0.0 | 0.0 | 0.00 | 0.00 | 0.00 | 87 | 1009.9 | |
| 20260506125641 | 66 | 0.0 | 0.0 | 0.00 | 0.00 | 0.00 | 88 | 1010.1 | |
| 20260506124141 | 66 | 0.0 | 0.0 | 0.00 | 0.00 | 0.00 | 87 | 1010.2 | |
| 20260506122641 | 66 | 0.0 | 0.0 | 0.00 | 0.00 | 0.00 | 89 | 1010.1 | |
| 20260506121141 | 66 | 0.0 | 0.0 | 0.00 | 0.00 | 0.00 | 89 | 1010.2 | |
| 20260506115641 | 66 | 0.0 | 0.0 | 0.00 | 0.00 | 0.00 | 88 | 1010.3 | |
| 20260506114141 | 66 | 0.0 | 0.0 | 0.00 | 0.00 | 0.00 | 91 | 1010.4 | |
| 20260506112641 | 66 | 0.0 | 0.0 | 0.00 | 0.00 | 0.00 | 94 | 1010.6 | |
| 20260506111141 | 65 | 0.0 | 0.0 | 0.00 | 0.00 | 0.00 | 94 | 1010.6 | |
| 20260506105641 | 65 | 0.0 | 0.0 | 0.00 | 0.00 | 0.00 | 92 | 1010.8 | |
| 20260506104141 | 65 | 0.0 | 0.0 | 0.00 | 0.00 | 0.00 | 91 | 1010.9 | |
| 20260506102641 | 65 | 0.0 | 0.0 | 0.00 | 0.00 | 0.00 | 90 | 1010.9 | |
| 20260506101141 | 65 | 0.0 | 0.0 | 0.00 | 0.00 | 0.00 | 89 | 1011.0 | |
| 20260506095641 | 65 | 0.0 | 0.0 | 0.00 | 0.00 | 0.00 | 92 | 1011.1 | |
| 20260506094141 | 65 | 0.0 | 0.0 | 0.00 | 0.00 | 0.00 | 94 | 1011.0 | |
| 20260506092641 | 65 | 0.0 | 0.0 | 0.00 | 0.00 | 0.00 | 95 | 1011.0 | |
| 20260506091141 | 65 | 0.0 | 0.0 | 0.00 | 0.00 | 0.00 | 95 | 1010.9 |